Weather History for KNCA - October, 2012

Change the Weather History Date:

Saturday, October 27, 2012

  Actual Average Record
Temperature  
Mean Temperature 66 °F -  
Max Temperature 69 °F 69 °F 89 °F (1998)
Min Temperature 63 °F 48 °F 35 °F (2001)
Cooling Degree Days 2    
Growing Degree Days 16 (Base 50)    
Moisture  
Dew Point 62 °F    
Average Humidity 86    
Maximum Humidity 88    
Minimum Humidity 81    
Precipitation  
Precipitation 1.32 in - - ()
Sea Level Pressure  
Sea Level Pressure 29.62 in    
Wind  
Wind Speed 18 mph (NNE)    
Max Wind Speed 24 mph    
Max Gust Speed 38 mph    
Visibility 8 miles    
Events Rain    
Averages and records for this station are not official NWS values.
T = Trace of Precipitation, MM = Missing Value Source: NWS Daily Summary

Daily Weather History Graph

Daily Weather History Graph

Search for Another Location

Airport or City:

Trip Planner

Search our weather history database for the weather conditions in past years. The results will help you decide how hot, cold, wet, or windy it might be!

Date:

Astronomy

Oct. 27, 2012 Rise Set
Actual Time 7:26 AM EDT 6:20 PM EDT
Civil Twilight 7:00 AM EDT 6:46 PM EDT
Nautical Twilight 6:30 AM EDT 7:15 PM EDT
Astronomical Twilight 6:01 AM EDT 7:45 PM EDT
Moon 5:02 PM EDT (10/27) 5:22 AM EDT (10/27)
Length of Visible Light 11h 46m
Length of Day
10h 54m
Waxing Gibbous, 96% of the Moon is Illuminated
Oct 27
Waxing Gibbous
Oct 29
Full
Nov 6
Last Quarter
Nov 13
New
Nov 20
First Quarter

Hourly Weather History & Observations

Time (EDT) Temp. Dew Point Humidity Pressure Visibility Wind Dir Wind Speed Gust Speed Precip Events Conditions
12:56 AM 69.1 °F 63.0 °F 81% 29.82 in 10.0 mi NNE 15.0 mph - N/A   Clear
1:56 AM 68.0 °F 63.0 °F 84% 29.78 in 10.0 mi North 12.7 mph - N/A   Clear
2:56 AM 68.0 °F 62.1 °F 81% 29.75 in 10.0 mi NNE 16.1 mph - N/A   Clear
3:56 AM 68.0 °F 62.1 °F 81% 29.73 in 10.0 mi North 12.7 mph - N/A   Mostly Cloudy
4:56 AM 66.9 °F 62.1 °F 84% 29.72 in 10.0 mi NNE 13.8 mph - 0.00 in Rain Light Rain
5:56 AM 66.9 °F 62.1 °F 84% 29.70 in 10.0 mi NNE 15.0 mph - 0.00 in   Partly Cloudy
6:56 AM 66.9 °F 62.1 °F 84% 29.69 in 10.0 mi NNE 16.1 mph 20.7 mph 0.00 in   Partly Cloudy
7:56 AM 68.0 °F 62.1 °F 81% 29.68 in 10.0 mi North 18.4 mph 26.5 mph 0.00 in   Mostly Cloudy
8:56 AM 68.0 °F 62.1 °F 81% 29.69 in 10.0 mi North 18.4 mph 25.3 mph 0.01 in Rain Light Rain
9:56 AM 68.0 °F 62.1 °F 81% 29.69 in 10.0 mi NNE 15.0 mph - 0.02 in Rain Light Rain
10:56 AM 66.9 °F 63.0 °F 87% 29.68 in 10.0 mi NNE 16.1 mph - 0.07 in Rain Light Rain
11:56 AM 66.9 °F 63.0 °F 87% 29.67 in 9.0 mi North 17.3 mph 28.8 mph 0.06 in Rain Light Rain
12:11 PM 66.2 °F 62.6 °F 88% 29.65 in 9.0 mi North 23.0 mph 32.2 mph 0.00 in Rain Light Rain
12:18 PM 66.2 °F 62.6 °F 88% 29.64 in 9.0 mi North 17.3 mph 32.2 mph 0.01 in Rain Light Rain
12:23 PM 66.2 °F 62.6 °F 88% 29.64 in 7.0 mi North 19.6 mph 26.5 mph 0.01 in Rain Light Rain
12:41 PM 66.2 °F 62.6 °F 88% 29.63 in 7.0 mi North 20.7 mph 29.9 mph 0.03 in Rain Light Rain
12:56 PM 66.9 °F 63.0 °F 87% 29.63 in 7.0 mi NNE 18.4 mph 28.8 mph 0.04 in Rain Light Rain
1:08 PM 66.2 °F 62.6 °F 88% 29.62 in 8.0 mi NNE 17.3 mph 29.9 mph 0.01 in Rain Light Rain
1:21 PM 66.2 °F 62.6 °F 88% 29.61 in 6.0 mi NNE 17.3 mph 32.2 mph 0.03 in Rain Light Rain
1:32 PM 66.2 °F 62.6 °F 88% 29.60 in 9.0 mi NNE 24.2 mph 32.2 mph 0.04 in Rain Light Rain
1:43 PM 66.2 °F 62.6 °F 88% 29.59 in 10.0 mi North 21.9 mph 32.2 mph 0.04 in Rain Light Rain
1:56 PM 66.9 °F 62.1 °F 84% 29.60 in 8.0 mi North 20.7 mph 33.4 mph 0.06 in Rain Light Rain
2:10 PM 66.2 °F 62.6 °F 88% 29.59 in 9.0 mi NNE 24.2 mph 32.2 mph 0.01 in Rain Light Rain
2:36 PM 66.2 °F 62.6 °F 88% 29.58 in 8.0 mi NNE 17.3 mph 32.2 mph 0.03 in Rain Light Rain
3:15 PM 66.2 °F 62.6 °F 88% 29.57 in 5.0 mi NNE 23.0 mph 31.1 mph 0.03 in Rain Light Rain
3:24 PM 66.2 °F 62.6 °F 88% 29.57 in 4.0 mi NNE 20.7 mph 27.6 mph 0.05 in Rain Rain
3:39 PM 66.2 °F 62.6 °F 88% 29.57 in 7.0 mi NNE 19.6 mph 27.6 mph 0.07 in Rain Light Rain
3:56 PM 66.9 °F 62.1 °F 84% 29.58 in 6.0 mi NNE 19.6 mph 32.2 mph 0.10 in Rain Light Rain
4:56 PM 66.0 °F 61.0 °F 84% 29.56 in 4.0 mi NNE 24.2 mph 33.4 mph 0.08 in Rain Rain
5:05 PM 66.2 °F 60.8 °F 83% 29.55 in 5.0 mi NNE 21.9 mph 32.2 mph 0.01 in Rain Rain
5:30 PM 64.4 °F 60.8 °F 88% 29.55 in 6.0 mi NNE 17.3 mph 26.5 mph 0.05 in Rain Rain
5:56 PM 64.9 °F 61.0 °F 87% 29.56 in 5.0 mi North 21.9 mph 28.8 mph 0.12 in Rain Rain
6:39 PM 64.4 °F 60.8 °F 88% 29.54 in 5.0 mi NNE 18.4 mph 31.1 mph 0.12 in Rain Rain
6:56 PM 64.9 °F 61.0 °F 87% 29.56 in 6.0 mi NNE 23.0 mph 31.1 mph 0.16 in Rain Rain
7:30 PM 64.4 °F 60.8 °F 88% 29.55 in 7.0 mi NNE 20.7 mph 31.1 mph 0.08 in Rain Rain
7:56 PM 64.9 °F 61.0 °F 87% 29.55 in 5.0 mi NNE 21.9 mph 33.4 mph 0.16 in Rain Rain
8:40 PM 64.4 °F 60.8 °F 88% 29.55 in 6.0 mi NNE 23.0 mph 33.4 mph 0.15 in Rain Rain
8:56 PM 64.0 °F 60.1 °F 87% 29.55 in 9.0 mi NNE 20.7 mph 32.2 mph 0.18 in Rain Light Rain
9:56 PM 64.0 °F 59.0 °F 84% 29.55 in 6.0 mi NNE 20.7 mph 34.5 mph 0.14 in Rain Rain
11:56 PM 63.0 °F 59.0 °F 87% 29.53 in 6.0 mi North 24.2 mph 38.0 mph 0.12 in Rain Rain